TimeEDT,TemperatureF,Dew PointF,Humidity,Sea Level PressureIn,VisibilityMPH,Wind Direction,Wind SpeedMPH,Gust SpeedMPH,PrecipitationIn,Events,Conditions,WindDirDegrees,DateUTC
12:53 AM,48.9,42.1,77,29.96,10.0,North,3.5,-,N/A,,Clear,360,2013-10-17 04:53:00
1:53 AM,46.9,43.0,86,29.96,10.0,Calm,Calm,-,N/A,,Clear,0,2013-10-17 05:53:00
2:53 AM,46.0,42.1,86,29.95,10.0,NNW,3.5,-,N/A,,Clear,330,2013-10-17 06:53:00
3:53 AM,44.1,41.0,89,29.94,10.0,Calm,Calm,-,N/A,,Clear,0,2013-10-17 07:53:00
4:53 AM,43.0,39.9,89,29.93,6.0,Calm,Calm,-,N/A,,Clear,0,2013-10-17 08:53:00
5:53 AM,43.0,41.0,93,29.93,7.0,Calm,Calm,-,N/A,,Clear,0,2013-10-17 09:53:00
6:53 AM,43.0,39.9,89,29.92,6.0,Calm,Calm,-,N/A,,Clear,0,2013-10-17 10:53:00
7:53 AM,43.0,39.9,89,29.91,7.0,Calm,Calm,-,N/A,,Clear,0,2013-10-17 11:53:00
8:53 AM,46.0,43.0,89,29.94,6.0,West,3.5,-,N/A,,Partly Cloudy,270,2013-10-17 12:53:00
9:53 AM,48.0,44.1,86,29.93,7.0,Calm,Calm,-,N/A,,Overcast,0,2013-10-17 13:53:00
10:53 AM,48.9,43.0,80,29.93,9.0,WSW,3.5,-,N/A,,Overcast,250,2013-10-17 14:53:00
11:53 AM,48.9,46.0,90,29.92,2.5,Calm,Calm,-,0.05,Rain,Rain,0,2013-10-17 15:53:00
12:08 PM,48.2,44.6,87,29.91,4.0,Calm,Calm,-,0.04,Rain,Light Rain,0,2013-10-17 16:08:00
12:24 PM,48.2,46.4,93,29.91,9.0,Variable,4.6,-,0.04,Rain,Light Rain,0,2013-10-17 16:24:00
12:41 PM,50.0,46.4,87,29.90,10.0,Calm,Calm,-,0.04,,Overcast,0,2013-10-17 16:41:00
12:53 PM,50.0,46.9,89,29.91,10.0,West,3.5,-,0.04,Rain,Light Rain,260,2013-10-17 16:53:00
1:39 PM,51.8,48.2,88,29.87,10.0,SSW,4.6,-,0.00,,Overcast,210,2013-10-17 17:39:00
1:53 PM,52.0,46.9,83,29.87,10.0,SW,6.9,-,0.00,,Overcast,230,2013-10-17 17:53:00
2:12 PM,51.8,46.4,82,29.87,10.0,SW,6.9,-,N/A,,Mostly Cloudy,230,2013-10-17 18:12:00
2:38 PM,53.6,46.4,77,29.87,10.0,West,9.2,-,N/A,,Overcast,260,2013-10-17 18:38:00
2:53 PM,52.0,46.0,80,29.88,10.0,West,6.9,-,N/A,,Overcast,260,2013-10-17 18:53:00
3:45 PM,53.6,44.6,72,29.87,10.0,WSW,9.2,-,N/A,,Overcast,250,2013-10-17 19:45:00
3:53 PM,53.1,45.0,74,29.88,10.0,West,6.9,-,N/A,,Overcast,260,2013-10-17 19:53:00
4:30 PM,53.6,44.6,72,29.88,10.0,West,8.1,18.4,N/A,,Overcast,260,2013-10-17 20:30:00
4:53 PM,53.1,44.1,71,29.89,10.0,West,9.2,19.6,N/A,,Overcast,270,2013-10-17 20:53:00
5:14 PM,53.6,44.6,72,29.89,10.0,WSW,10.4,-,N/A,,Overcast,250,2013-10-17 21:14:00
5:53 PM,53.1,44.1,71,29.90,10.0,WSW,9.2,-,N/A,,Overcast,240,2013-10-17 21:53:00
6:53 PM,52.0,44.1,74,29.91,10.0,WSW,9.2,-,N/A,,Overcast,250,2013-10-17 22:53:00
7:53 PM,52.0,44.1,74,29.94,10.0,West,5.8,-,N/A,,Overcast,260,2013-10-17 23:53:00
8:53 PM,51.1,44.1,77,29.96,10.0,WSW,3.5,-,N/A,,Partly Cloudy,250,2013-10-18 00:53:00
9:53 PM,48.9,43.0,80,29.97,10.0,SW,3.5,-,N/A,,Clear,230,2013-10-18 01:53:00
10:53 PM,46.9,42.1,83,29.98,10.0,SSW,4.6,-,N/A,,Clear,210,2013-10-18 02:53:00
11:53 PM,43.0,39.9,89,29.98,10.0,South,4.6,-,N/A,,Clear,190,2013-10-18 03:53:00